Date,TemperatureHighF,TemperatureAvgF,TemperatureLowF,DewpointHighF,DewpointAvgF,DewpointLowF,HumidityHigh,HumidityAvg,HumidityLow,PressureMaxIn,PressureMinIn,WindSpeedMaxMPH,WindSpeedAvgMPH,GustSpeedMaxMPH,PrecipitationSumIn
2013-1-1,78.3,71.7,64.3,62.5,59.2,56.6,84,65,52,30.17,30.02,41,8,41,0.00
2013-1-2,82.8,71.0,60.9,66.8,62.3,58.2,95,76,47,30.07,29.96,22,2,22,0.00
2013-1-3,82.0,72.5,65.8,69.5,65.7,63.5,96,81,56,30.10,30.00,24,2,24,0.04
2013-1-4,80.1,69.7,64.3,70.6,66.2,62.4,96,89,68,30.19,30.07,18,1,18,0.00
2013-1-5,75.1,69.3,65.6,69.9,66.3,63.4,96,91,77,30.23,30.13,21,3,21,0.24
2013-1-6,81.4,72.4,64.3,73.6,67.5,62.5,97,85,66,30.16,30.04,32,5,32,0.05
2013-1-7,75.4,70.4,66.9,69.5,67.1,65.4,96,89,74,30.13,30.04,21,1,21,0.01
2013-1-8,81.8,74.8,68.8,73.1,69.8,67.0,96,85,67,30.17,30.04,28,3,28,0.08
2013-1-9,81.1,76.9,74.2,70.8,69.4,66.7,86,78,68,30.24,30.12,40,7,40,0.00
2013-1-10,79.9,75.9,72.5,68.6,65.4,60.4,80,70,54,30.26,30.15,44,6,44,0.00
2013-1-11,80.7,75.1,70.1,69.7,66.4,64.5,86,75,62,30.22,30.12,34,7,34,0.02
2013-1-12,79.9,73.0,65.3,68.7,66.1,62.3,91,79,61,30.15,30.06,27,3,27,0.01
2013-1-13,80.9,73.8,65.3,67.2,64.1,60.7,93,72,53,30.10,30.04,37,5,37,0.00
2013-1-14,80.3,71.8,64.3,64.8,62.4,60.3,89,73,55,30.14,30.09,43,4,43,0.00
2013-1-15,79.2,71.8,64.5,68.7,65.2,61.2,93,80,63,30.10,30.01,26,2,26,0.00
2013-1-16,80.5,71.7,61.5,69.9,65.6,59.6,96,82,62,30.07,29.99,29,4,29,0.03
2013-1-17,80.5,70.1,59.2,71.1,64.8,53.2,96,84,65,30.07,29.95,51,8,51,0.05
2013-1-18,70.3,62.5,52.3,58.7,51.8,45.0,81,69,59,30.20,30.06,36,15,36,0.00
2013-1-19,69.6,67.5,62.9,67.3,62.8,55.8,95,86,62,30.19,30.07,26,3,26,0.19
2013-1-20,80.3,69.7,62.6,70.0,65.2,61.4,97,87,60,30.12,29.98,21,2,21,0.25
2013-1-21,79.8,71.0,64.5,72.3,66.5,63.3,97,86,67,30.04,29.93,26,3,26,0.02
2013-1-22,74.7,66.6,61.2,63.7,58.3,52.7,94,76,55,30.18,29.98,37,13,37,0.00
2013-1-23,73.3,65.8,58.7,58.7,54.0,50.5,84,67,46,30.27,30.16,35,10,35,0.00
2013-1-24,75.1,64.2,56.3,54.2,51.6,43.9,89,66,43,30.26,30.16,27,7,27,0.00
2013-1-25,76.3,64.9,55.9,57.2,53.9,49.7,88,69,45,30.26,30.15,24,4,24,0.00
2013-1-26,78.5,66.0,56.6,60.0,56.9,50.5,94,75,45,30.23,30.13,24,4,24,0.00
2013-1-27,78.5,69.3,60.9,62.8,59.4,57.1,91,72,52,30.25,30.17,33,9,33,0.00
2013-1-28,79.6,74.2,70.3,65.4,62.4,60.1,77,67,54,30.28,30.19,35,7,35,0.00
2013-1-29,79.8,73.5,66.9,68.6,65.4,62.9,91,76,62,30.20,30.09,45,8,45,0.00
2013-1-30,79.8,74.0,69.9,67.5,64.4,62.3,88,73,61,30.09,29.94,48,12,48,0.00
2013-1-31,71.6,65.7,57.8,70.1,58.1,40.1,96,78,47,30.15,29.92,43,9,43,0.00
2013-2-1,72.1,61.1,51.4,53.5,47.1,35.3,73,60,50,30.24,30.13,41,15,41,0.00
2013-2-2,73.7,62.6,53.1,52.9,47.4,36.5,86,59,42,30.23,30.09,32,4,32,0.00
2013-2-3,73.9,62.0,54.4,54.2,47.2,35.3,92,63,26,30.14,30.04,28,6,28,0.00
2013-2-4,74.9,60.7,47.6,54.1,46.9,36.8,89,64,29,30.11,30.00,24,2,24,0.00
2013-2-5,78.6,65.5,52.2,62.3,56.9,50.5,95,76,49,30.05,29.97,24,2,24,0.00
2013-2-6,79.2,69.0,59.3,66.0,61.4,57.9,96,78,58,30.07,29.99,20,0,20,0.00
2013-2-7,80.3,71.7,62.3,65.2,62.4,59.6,93,74,52,30.04,29.92,30,3,30,0.00
2013-2-8,83.0,73.6,64.8,69.0,66.8,57.8,93,80,59,30.00,29.88,34,5,34,0.00
2013-2-9,79.0,69.6,60.7,66.8,61.4,55.2,96,76,58,30.13,29.98,40,9,40,0.00
2013-2-10,74.9,70.6,66.1,64.8,60.5,55.3,87,71,64,30.23,30.12,38,7,38,0.06
2013-2-11,78.1,71.6,64.2,64.7,62.6,59.3,87,74,62,30.18,30.08,32,6,32,0.00
2013-2-12,85.3,73.2,62.6,68.4,64.5,58.9,95,76,43,30.09,29.94,34,6,34,0.00
2013-2-13,85.7,76.4,69.1,70.6,68.2,65.1,94,77,51,29.98,29.87,41,9,41,0.00
2013-2-14,81.1,70.7,62.0,71.7,66.7,60.0,96,88,67,29.98,29.83,53,7,53,0.55
2013-2-15,71.6,65.9,62.3,67.6,64.1,61.1,97,94,77,29.99,29.92,24,2,24,0.25
2013-2-16,74.0,64.7,54.4,63.4,56.0,44.8,97,76,38,30.05,29.85,48,14,48,0.01
2013-2-17,57.5,50.9,44.5,44.8,28.0,15.4,71,44,22,30.27,30.04,51,20,51,0.00
2013-2-18,68.4,58.7,46.0,55.4,44.2,32.3,71,59,45,30.29,30.17,41,12,41,0.00
2013-2-19,77.7,70.1,58.6,66.4,60.1,52.8,92,71,59,30.17,30.06,38,11,38,0.02
2013-2-20,78.3,69.6,64.5,65.8,63.1,55.5,96,82,46,30.08,29.99,24,3,24,0.01
2013-2-21,81.1,71.9,63.5,68.3,64.3,61.6,96,78,57,30.06,29.96,28,4,28,0.00
2013-2-22,81.4,75.1,69.8,69.8,68.3,64.8,89,80,65,30.07,29.98,38,11,38,0.00
2013-2-23,84.0,76.9,72.8,71.2,69.0,66.6,90,77,58,30.01,29.89,34,12,34,0.00
2013-2-24,88.4,77.4,71.1,72.6,68.7,59.9,96,77,40,29.97,29.87,27,2,27,0.00
2013-2-25,83.6,75.1,67.6,72.9,68.9,65.3,95,82,59,29.89,29.78,33,7,33,0.02
2013-2-26,84.7,78.8,74.6,72.0,69.2,65.5,88,74,56,29.87,29.77,53,17,53,0.00
2013-2-27,76.7,70.2,64.5,72.6,65.2,61.0,96,85,63,29.94,29.83,25,6,25,0.11
2013-2-28,68.8,63.7,59.3,63.6,54.2,47.9,96,72,52,29.98,29.88,29,9,29,0.00
2013-3-1,64.2,61.2,57.2,56.5,50.9,45.8,86,69,58,29.97,29.88,31,10,31,0.00
2013-3-2,65.2,57.1,50.7,47.2,41.6,33.8,71,57,40,30.01,29.93,56,17,56,0.00
2013-3-3,61.5,53.5,47.6,46.4,42.0,38.1,90,67,44,30.12,29.93,47,13,47,0.02
2013-3-4,68.8,53.3,41.2,42.1,35.7,29.3,81,54,26,30.18,30.09,36,11,36,0.00
2013-3-5,75.8,61.8,46.8,56.0,51.2,42.1,94,70,45,30.15,30.06,36,6,36,0.00
2013-3-6,77.6,64.7,51.3,63.5,50.2,22.5,92,64,21,30.07,29.93,51,18,51,0.00
2013-3-7,71.5,58.0,46.2,53.5,42.9,33.6,89,59,36,30.16,30.04,33,10,33,0.00
2013-3-8,76.0,62.3,51.0,52.5,48.6,36.7,94,66,25,30.17,30.07,27,7,27,0.00
2013-3-9,74.2,63.4,52.8,56.5,52.1,48.6,92,68,47,30.16,30.07,37,9,37,0.00
2013-3-10,74.6,68.9,62.3,60.1,54.6,51.3,72,61,46,30.13,30.04,39,11,39,0.00
2013-3-11,76.7,71.4,66.9,61.1,59.1,55.3,75,66,49,30.07,29.93,35,11,35,0.00
2013-3-12,80.9,73.7,68.1,66.9,64.0,60.8,84,72,56,29.97,29.88,40,14,40,0.00
2013-3-13,74.9,65.3,56.0,64.7,52.2,38.7,91,66,30,30.09,29.95,36,13,36,0.00
2013-3-14,72.3,60.5,52.9,52.8,44.4,33.7,90,60,28,30.18,30.06,40,15,40,0.00
2013-3-15,72.0,61.6,51.3,52.7,47.7,42.7,78,62,35,30.22,30.12,32,10,32,0.00
2013-3-16,74.9,63.8,51.1,57.0,52.0,48.7,95,68,44,30.16,30.06,29,5,29,0.00
2013-3-17,76.3,66.6,55.6,60.1,56.6,52.2,93,72,51,30.12,30.00,35,6,35,0.00
2013-3-18,79.4,70.6,62.7,68.7,63.8,58.3,94,80,64,30.04,29.94,40,11,40,0.05
2013-3-19,78.8,72.4,67.4,69.8,66.8,63.6,95,84,62,29.99,29.80,39,5,39,0.00
2013-3-20,85.3,72.3,63.5,68.8,62.4,55.0,96,74,43,29.95,29.78,45,5,45,0.00
2013-3-21,75.1,67.0,60.9,60.7,50.5,33.8,92,61,25,29.92,29.81,34,12,34,0.00
2013-3-22,76.1,70.1,52.3,68.8,60.1,49.2,90,72,55,29.98,29.87,38,11,38,0.00
2013-3-23,87.4,78.2,71.1,73.3,69.4,63.2,95,76,49,29.95,29.78,34,8,34,0.02
2013-3-24,88.4,79.5,74.2,72.7,70.3,67.1,94,75,52,29.86,29.67,64,19,64,0.01
2013-3-25,77.7,73.3,63.9,72.3,59.0,41.4,93,65,35,29.96,29.72,40,9,40,0.01
2013-3-26,66.0,59.8,50.2,44.6,36.9,29.8,61,44,27,30.18,29.96,45,22,45,0.00
2013-3-27,68.4,55.9,45.1,45.6,39.0,33.1,77,55,32,30.23,30.14,37,12,37,0.00
2013-3-28,73.3,60.1,49.1,48.4,42.9,35.1,81,56,27,30.24,30.13,32,8,32,0.00
2013-3-29,73.5,63.9,54.2,52.3,47.8,41.2,73,57,38,30.26,30.17,34,9,34,0.00
2013-3-30,75.1,65.0,53.5,55.6,51.0,45.6,90,63,38,30.23,30.13,25,3,25,0.00
2013-3-31,79.6,69.7,57.8,64.8,59.8,52.9,91,72,52,30.16,30.02,45,8,45,0.00
2013-4-1,85.7,74.8,66.9,69.6,65.2,55.3,90,74,40,30.02,29.92,43,5,43,0.13
2013-4-2,84.5,72.7,64.0,67.8,64.1,58.6,96,76,46,30.05,29.96,21,2,21,0.00
2013-4-3,82.6,74.6,66.4,69.0,66.2,64.0,94,76,55,30.04,29.96,35,5,35,0.00
2013-4-4,84.3,75.0,67.9,71.3,68.3,65.8,96,81,57,30.02,29.89,53,9,53,1.74
2013-4-5,72.3,67.7,64.5,70.1,65.4,62.2,96,92,80,29.96,29.80,34,5,34,0.73
2013-4-6,76.3,67.5,58.7,65.4,59.8,56.4,93,77,61,30.05,29.90,33,11,33,0.02
2013-4-7,76.7,72.1,67.6,63.8,61.7,59.0,80,70,58,30.11,29.99,29,8,29,0.00
2013-4-8,81.2,71.4,60.2,64.4,60.0,52.0,94,70,39,30.10,30.01,30,2,30,0.00
2013-4-9,80.3,73.2,65.3,67.1,64.5,62.1,92,75,61,30.12,30.02,33,6,33,0.00
2013-4-10,83.2,76.8,70.6,70.9,68.5,65.0,84,76,63,30.07,29.97,39,6,39,0.00
2013-4-11,83.0,77.9,73.9,72.5,70.5,69.2,88,78,66,29.99,29.87,44,16,44,0.04
2013-4-12,85.7,79.0,71.1,75.5,72.7,67.4,93,81,67,29.92,29.84,50,11,50,2.23
2013-4-13,83.8,76.8,71.8,74.3,71.9,68.9,94,85,66,29.95,29.85,21,2,21,0.16
2013-4-14,85.5,78.4,71.6,74.9,71.9,69.0,96,82,59,29.94,29.87,40,8,40,0.00
2013-4-15,89.3,77.5,70.3,74.5,71.9,67.5,95,84,54,30.03,29.90,36,3,36,0.30
2013-4-16,85.7,77.6,70.9,76.0,71.4,68.7,97,82,62,30.09,29.99,34,6,34,0.01
2013-4-17,82.8,77.2,72.5,69.7,67.8,65.9,88,73,58,30.08,29.99,30,7,30,0.00
2013-4-18,85.3,79.0,72.8,71.7,69.1,65.0,86,72,54,30.03,29.95,32,6,32,0.00
2013-4-19,86.1,80.6,77.0,72.3,70.4,66.7,82,72,54,30.02,29.93,44,17,44,0.00
2013-4-20,89.5,78.3,72.5,74.7,71.5,67.0,94,81,50,30.04,29.90,66,3,66,0.20
2013-4-21,84.1,76.5,71.6,72.3,70.4,66.3,95,82,59,30.06,29.96,40,4,40,0.01
2013-4-22,84.5,73.2,67.1,70.8,68.4,64.4,96,86,58,30.02,29.89,43,2,43,1.22
2013-4-23,81.2,73.6,66.8,71.0,65.0,59.6,97,76,55,30.06,29.92,36,6,36,0.00
2013-4-24,82.6,75.3,66.0,65.4,62.0,59.4,88,64,51,30.10,30.00,21,1,21,0.00
2013-4-25,81.1,74.8,66.9,63.2,60.8,58.6,80,62,48,30.16,30.04,24,2,24,0.00
2013-4-26,80.7,73.4,63.7,65.0,62.6,59.8,91,70,55,30.19,30.08,35,5,35,0.00
2013-4-27,80.7,75.5,68.6,66.3,62.6,59.0,76,65,50,30.17,30.05,33,6,33,0.00
2013-4-28,81.4,76.3,72.7,64.8,62.3,59.5,75,62,51,30.08,29.97,27,3,27,0.00
2013-4-29,82.8,76.6,72.7,71.5,67.0,61.2,88,73,61,30.00,29.91,34,2,34,0.04
2013-4-30,83.6,75.6,70.3,71.0,68.9,65.2,91,80,60,29.97,29.90,36,1,36,0.04
2013-5-1,84.0,73.9,68.9,74.2,69.9,67.4,96,88,64,29.98,29.89,32,1,32,0.60
2013-5-2,79.0,71.6,68.8,73.3,69.2,67.1,96,92,78,29.91,29.75,48,6,48,1.66
2013-5-3,86.1,74.1,67.9,69.8,67.9,64.4,96,83,50,29.79,29.66,31,2,31,0.28
2013-5-4,86.7,75.8,67.6,70.2,66.6,63.5,97,76,49,29.78,29.66,30,4,30,0.01
2013-5-5,79.9,72.6,64.7,66.9,61.5,52.8,92,70,41,29.90,29.73,32,7,32,0.00
2013-5-6,84.9,71.4,56.9,64.0,58.9,54.6,95,67,40,29.99,29.89,25,1,25,0.00
2013-5-7,84.0,73.0,62.4,61.8,58.9,54.1,90,64,38,30.03,29.94,30,5,30,0.00
2013-5-8,85.7,73.7,60.9,64.9,58.9,50.9,94,64,33,30.10,30.01,23,2,23,0.00
2013-5-9,86.3,75.8,63.4,72.0,65.7,58.1,92,72,49,30.10,30.03,30,1,30,0.00
2013-5-10,87.8,79.1,71.6,72.7,70.4,67.1,90,76,52,30.10,29.99,26,3,26,0.00
2013-5-11,87.0,78.0,70.8,74.4,71.3,66.6,95,81,62,30.04,29.95,41,6,41,0.25
2013-5-12,91.2,77.6,71.3,74.5,71.0,67.4,96,82,48,30.03,29.92,36,2,36,0.80
2013-5-13,87.0,77.4,70.3,73.8,69.0,63.2,97,77,55,30.05,29.96,27,2,27,0.01
2013-5-14,79.6,74.3,67.6,65.8,60.3,53.7,86,63,46,30.14,30.03,34,8,34,0.00
2013-5-15,81.1,73.3,63.7,63.4,59.6,55.1,88,64,43,30.16,30.06,32,5,32,0.00
2013-5-16,82.6,74.5,63.4,63.3,60.5,56.4,85,63,45,30.08,30.01,23,2,23,0.00
2013-5-17,88.4,76.9,67.3,71.0,67.5,62.4,90,74,46,30.05,29.98,23,1,23,0.01
2013-5-18,85.3,78.6,72.0,73.3,70.2,68.5,92,76,62,30.07,29.99,32,3,32,0.00
2013-5-19,86.1,78.3,69.9,71.9,68.1,64.0,93,72,53,30.07,29.97,24,2,24,0.00
2013-5-20,80.1,75.0,68.9,73.5,70.9,67.1,96,87,76,30.04,29.94,30,2,30,2.66
2013-5-21,84.0,75.9,70.1,74.8,69.9,66.0,96,83,58,30.01,29.90,35,3,35,0.03
2013-5-22,86.1,75.8,72.1,74.6,71.6,68.2,94,87,66,29.94,29.87,29,1,29,0.37
2013-5-23,91.2,81.1,73.2,75.7,71.4,63.2,96,75,43,29.98,29.88,27,1,27,0.00
2013-5-24,91.6,81.4,73.3,75.2,71.9,63.9,94,75,47,30.02,29.91,25,1,25,0.01
2013-5-25,83.8,79.2,73.5,73.9,67.4,62.6,91,68,51,30.12,30.01,39,14,39,0.00
2013-5-26,83.4,77.4,69.3,67.1,63.5,60.2,81,63,49,30.14,30.07,35,11,35,0.00
2013-5-27,82.8,78.1,73.5,72.4,68.6,62.9,93,73,63,30.12,30.03,43,17,43,0.17
2013-5-28,82.4,77.9,74.0,72.9,71.2,68.9,93,80,69,30.07,30.00,35,10,35,0.44
2013-5-29,80.9,74.9,70.6,73.8,70.9,66.7,96,88,72,30.06,29.99,48,8,48,2.40
2013-5-30,82.8,77.9,71.8,74.0,71.1,68.5,94,80,68,30.04,29.97,54,12,54,0.09
2013-5-31,84.1,78.4,74.6,74.1,72.6,70.9,93,83,67,30.02,29.97,34,6,34,0.25
2013-6-1,83.4,76.5,73.5,77.1,74.0,72.3,96,92,73,29.99,29.92,25,1,25,0.84
2013-6-2,88.8,77.9,71.8,77.8,73.0,70.2,97,86,58,29.98,29.89,30,2,30,0.32
2013-6-3,87.0,79.0,73.0,75.0,72.9,69.3,96,83,58,30.00,29.88,21,2,21,0.01
2013-6-4,86.1,78.6,73.2,76.4,73.3,69.8,96,84,61,30.02,29.93,21,1,21,0.06
2013-6-5,83.8,80.6,78.1,75.8,74.6,72.8,88,82,73,29.99,29.87,22,2,22,0.01
2013-6-6,87.6,79.9,75.1,78.8,74.6,70.9,95,84,66,29.88,29.75,51,16,51,0.86
2013-6-7,88.0,77.1,73.7,75.5,73.2,71.4,97,88,64,29.97,29.81,51,7,51,2.45
2013-6-8,88.2,80.1,74.2,76.9,74.4,72.4,96,84,65,30.07,29.93,28,3,28,0.01
2013-6-9,86.3,82.4,79.0,75.2,73.4,70.2,85,75,61,30.07,30.01,39,5,39,0.00
2013-6-10,87.8,82.9,79.4,76.4,74.3,73.0,84,76,64,30.06,29.98,27,4,27,0.00
2013-6-11,88.2,81.8,77.2,77.1,75.1,70.1,92,81,58,30.07,29.98,31,2,31,0.32
2013-6-12,89.7,79.4,75.8,77.3,74.5,72.1,93,85,58,30.04,29.98,21,0,21,0.19
2013-6-13,90.3,79.2,74.0,78.2,72.7,67.5,96,82,51,30.03,29.92,25,2,25,0.04
2013-6-14,92.5,80.1,73.3,74.7,72.1,69.1,94,78,48,29.95,29.85,44,6,44,0.59
2013-6-15,92.3,81.9,74.6,76.4,73.2,68.4,96,77,49,30.02,29.90,20,2,20,0.00
2013-6-16,90.1,82.5,74.0,76.0,73.7,70.8,95,76,55,30.06,29.98,30,4,30,0.00
2013-6-17,90.1,83.8,76.3,76.3,73.7,70.5,91,73,55,30.05,29.97,27,5,27,0.00
2013-6-18,90.3,83.5,76.8,75.4,73.7,71.0,92,73,55,30.04,29.96,30,7,30,0.00
2013-6-19,90.3,83.4,77.2,77.2,73.7,71.0,92,74,54,30.02,29.95,31,6,31,0.00
2013-6-20,91.6,80.0,72.7,75.9,72.1,68.7,95,78,53,30.06,29.98,44,4,44,0.54
2013-6-21,89.9,82.3,75.6,76.4,72.3,66.0,95,73,49,30.08,29.99,26,4,26,0.21
2013-6-22,89.5,83.1,76.0,74.9,72.1,69.4,90,70,55,30.07,30.00,32,5,32,0.00
2013-6-23,88.8,82.5,76.7,75.2,71.9,68.0,89,71,56,30.09,30.01,34,6,34,0.20
2013-6-24,87.8,82.0,75.8,76.5,72.7,69.9,91,74,58,30.13,30.04,35,6,35,0.35
2013-6-25,88.8,82.0,75.8,75.9,73.6,70.4,93,76,61,30.09,30.00,30,6,30,0.06
2013-6-26,89.3,82.7,77.7,77.0,73.5,69.8,90,74,55,30.05,29.98,32,6,32,0.02
2013-6-27,87.0,81.6,76.3,76.2,73.4,68.9,90,77,64,30.03,29.93,33,2,33,0.00
2013-6-28,89.7,80.6,73.0,76.0,73.2,69.7,95,79,54,29.96,29.83,29,4,29,0.87
2013-6-29,90.5,79.6,72.7,77.6,74.0,69.9,96,84,53,29.88,29.81,43,2,43,0.09
2013-6-30,88.6,80.5,76.1,77.8,73.6,70.0,92,80,57,29.91,29.82,56,9,56,0.28
2013-7-1,88.2,80.8,76.1,76.4,73.9,70.8,90,80,62,30.00,29.88,45,11,45,0.04
2013-7-2,87.8,81.5,76.5,76.6,74.5,72.1,91,80,66,30.08,29.94,38,9,38,0.01
2013-7-3,87.6,81.7,76.5,76.3,73.8,69.7,90,77,65,30.09,30.01,50,12,50,0.19
2013-7-4,88.0,81.9,74.6,75.5,73.7,68.0,94,77,62,30.13,30.03,54,9,54,0.20
2013-7-5,86.3,80.4,74.7,76.6,74.3,72.4,95,82,68,30.10,30.02,47,6,47,0.10
2013-7-6,87.6,82.3,78.5,75.9,73.2,69.6,90,74,58,30.08,30.00,38,7,38,0.09
2013-7-7,87.4,82.5,76.5,74.5,73.1,70.5,92,74,61,30.07,29.99,43,9,43,0.02
2013-7-8,88.2,82.3,75.8,73.8,71.8,69.8,86,71,57,30.11,30.04,29,4,29,0.00
2013-7-9,87.0,80.5,74.7,74.2,71.2,67.3,92,74,55,30.10,30.02,32,5,32,0.00
2013-7-10,84.9,77.7,72.8,74.8,72.8,69.8,95,85,67,30.06,29.98,28,2,28,0.68
2013-7-11,90.1,80.6,74.6,78.4,73.4,70.0,97,80,56,30.01,29.92,31,1,30,0.01
2013-7-12,87.8,79.7,74.9,76.2,72.9,67.8,95,81,53,29.95,29.87,44,1,43,0.36
2013-7-13,87.4,75.7,71.8,74.1,71.7,68.9,97,88,62,29.99,29.89,30,2,30,2.00
2013-7-14,88.6,77.8,72.0,74.5,72.3,69.7,97,85,57,30.07,29.95,34,4,34,1.11
2013-7-15,88.2,79.7,72.1,76.9,71.9,68.6,97,79,56,30.06,29.98,26,4,26,0.05
2013-7-16,83.0,77.5,72.8,75.1,71.0,68.7,95,81,64,30.12,30.01,62,8,62,0.34
2013-7-17,78.8,74.3,72.0,75.8,72.2,67.5,97,93,77,30.12,30.02,36,3,36,2.06
2013-7-18,83.4,75.5,71.8,77.0,73.2,69.3,97,93,75,30.10,30.02,40,2,40,0.23
2013-7-19,88.2,80.2,73.2,78.5,74.7,72.0,97,84,64,30.10,30.01,31,5,31,0.06
2013-7-20,87.0,80.8,75.6,78.5,75.4,70.3,93,84,59,30.09,30.00,36,5,36,0.03
2013-7-21,89.3,81.0,75.6,78.2,75.1,70.0,95,83,64,30.11,30.02,23,2,23,0.11
2013-7-22,90.1,83.2,77.0,76.9,73.8,69.3,93,74,53,30.12,30.04,26,5,26,0.00
2013-7-23,93.6,83.6,76.0,76.2,73.1,63.2,93,73,40,30.07,29.94,32,3,32,0.00
2013-7-24,92.3,83.8,76.8,78.0,73.2,67.7,95,73,46,29.99,29.88,29,6,29,0.14
2013-7-25,92.5,83.8,74.7,74.5,72.7,70.5,92,71,53,29.99,29.89,30,8,30,0.00
2013-7-26,92.5,82.4,75.1,76.7,74.2,71.2,95,78,53,30.00,29.90,39,10,39,0.83
2013-7-27,86.5,79.4,75.3,78.6,75.3,71.9,96,88,67,29.98,29.90,36,2,36,0.55
2013-7-28,86.3,80.7,76.3,76.5,74.9,71.1,95,83,65,30.04,29.92,25,1,25,0.03
2013-7-29,90.5,82.1,75.3,77.0,74.8,71.9,95,80,56,30.10,29.99,30,2,26,0.00
2013-7-30,89.3,83.6,74.7,77.9,75.0,71.6,92,76,61,30.13,30.05,30,4,30,0.03
2013-7-31,89.5,83.8,77.4,76.4,74.0,70.7,91,73,57,30.08,29.98,30,4,30,0.00
2013-8-1,88.6,83.1,77.0,74.5,72.7,68.2,87,71,56,30.02,29.91,32,6,32,0.00
2013-8-2,90.1,80.5,74.9,76.3,73.0,67.7,93,79,55,30.02,29.89,36,1,36,0.55
2013-8-3,87.2,77.5,70.8,77.3,74.0,67.9,96,89,68,30.10,29.99,74,1,70,1.05
2013-8-4,94.0,81.9,75.6,77.4,74.4,68.7,97,81,46,30.08,29.96,35,2,35,0.16
2013-8-5,91.2,81.0,76.5,79.3,74.8,70.6,94,82,56,30.01,29.92,41,5,41,0.26
2013-8-6,90.7,80.9,75.4,77.5,74.4,71.7,96,82,59,29.96,29.86,35,2,35,0.06
2013-8-7,89.3,81.9,74.9,78.0,74.2,71.1,96,79,60,29.95,29.87,43,6,43,0.00
2013-8-8,89.7,83.9,77.7,77.0,73.8,69.6,91,72,55,29.98,29.89,38,7,38,0.12
2013-8-9,87.4,82.1,78.8,75.3,72.5,68.7,82,73,61,30.02,29.92,43,8,43,0.02
2013-8-10,89.0,82.1,79.0,75.6,74.0,72.2,84,77,62,30.08,30.00,32,4,32,0.00
2013-8-11,90.5,84.7,80.3,75.8,74.4,72.4,82,72,58,30.10,30.03,27,5,27,0.00
2013-8-12,89.5,82.2,75.6,76.8,73.6,69.6,92,76,58,30.07,29.98,32,6,32,0.15
2013-8-13,91.4,83.7,76.8,76.7,73.5,69.0,93,73,52,30.01,29.93,28,5,28,0.00
2013-8-14,90.7,83.0,75.6,76.3,73.3,68.6,94,74,54,29.99,29.90,29,5,29,0.00
2013-8-15,86.1,80.3,74.7,76.3,74.6,71.2,95,83,70,30.03,29.93,31,2,31,0.26
2013-8-16,90.7,84.2,77.9,77.9,75.6,72.8,92,76,58,30.02,29.95,26,3,26,0.00
2013-8-17,90.5,84.9,79.9,77.4,75.7,73.5,86,74,59,30.05,29.97,28,4,28,0.00
2013-8-18,89.5,84.3,80.1,77.1,75.1,73.5,86,74,63,30.05,29.96,38,6,38,0.05
2013-8-19,89.9,83.9,77.2,77.5,74.6,71.8,91,74,60,30.03,29.93,39,5,39,0.02
2013-8-20,90.3,84.2,79.6,75.5,73.8,70.5,86,71,55,30.03,29.95,36,6,36,0.00
2013-8-21,88.0,82.1,78.3,79.0,75.6,72.5,93,81,66,30.04,29.96,34,6,34,0.34
2013-8-22,89.9,82.7,73.2,78.4,75.2,69.2,96,79,60,30.04,29.93,45,3,40,0.20
2013-8-23,89.9,82.5,76.7,76.6,74.4,71.2,92,77,59,29.98,29.90,28,2,28,0.00
2013-8-24,91.2,82.2,75.4,78.0,74.1,69.4,94,78,57,30.08,29.94,31,3,31,0.20
2013-8-25,85.9,79.5,75.3,76.7,74.2,71.2,95,85,67,30.12,29.99,25,4,25,0.23
2013-8-26,88.8,80.6,75.3,76.3,72.9,68.5,92,78,57,30.08,29.98,34,2,34,0.00
2013-8-27,87.2,78.3,73.2,74.1,72.0,66.6,94,82,55,30.02,29.94,23,1,23,0.12
2013-8-28,87.2,78.7,73.9,75.8,72.9,69.9,94,83,61,30.01,29.92,32,3,32,0.25
2013-8-29,90.1,81.4,73.5,75.2,73.2,70.1,94,77,54,29.99,29.90,23,2,23,0.00
2013-8-30,91.4,82.9,74.9,75.3,72.4,66.7,94,72,45,29.98,29.87,29,3,29,0.00
2013-8-31,90.1,79.2,74.4,77.3,73.0,68.0,96,82,56,29.95,29.88,34,2,34,0.25
2013-9-1,88.8,78.3,73.0,79.4,74.4,69.8,97,89,56,29.98,29.90,28,1,28,0.04
2013-9-2,91.8,77.9,73.0,78.5,74.1,68.5,96,89,53,30.00,29.91,41,1,41,0.63
2013-9-3,89.0,79.4,72.3,78.4,74.3,71.1,97,85,60,29.99,29.90,16,0,16,0.14
2013-9-4,86.1,81.0,77.2,78.4,75.8,72.8,93,85,73,30.03,29.92,21,0,21,0.06
2013-9-5,89.3,82.8,78.3,76.9,75.2,72.8,91,78,59,30.04,29.96,18,2,18,0.00
2013-9-6,91.6,83.6,77.0,77.9,74.6,71.0,94,76,52,30.00,29.90,30,4,30,0.00
2013-9-7,84.9,77.7,73.2,76.6,73.5,69.0,95,87,66,29.96,29.87,43,4,43,0.09
2013-9-8,89.9,77.7,72.1,76.1,72.9,69.6,96,86,53,29.92,29.82,30,2,30,0.04
2013-9-9,88.8,80.9,73.2,75.6,72.7,70.5,94,77,58,29.96,29.86,31,6,31,0.01
2013-9-10,87.8,80.8,75.3,77.8,73.6,69.0,95,79,59,30.00,29.92,43,9,43,0.21
2013-9-11,81.8,78.2,73.0,77.9,73.9,70.7,96,87,72,30.02,29.93,43,4,43,0.70
2013-9-12,84.5,79.8,75.3,76.9,74.2,71.5,94,84,71,29.98,29.86,14,0,14,0.00
2013-9-13,91.4,82.0,74.0,76.9,73.1,69.1,96,76,50,29.87,29.78,18,1,18,0.00
2013-9-14,91.6,82.9,74.6,76.6,72.7,67.3,95,73,48,29.94,29.79,30,1,30,0.00
2013-9-15,86.5,80.1,77.7,77.5,74.6,71.0,92,84,71,30.01,29.89,33,3,33,0.07
2013-9-16,84.1,80.3,77.9,77.1,74.6,70.8,93,83,72,30.00,29.93,33,6,33,0.01
2013-9-17,82.0,78.8,73.7,76.2,73.9,71.5,95,85,76,30.00,29.88,31,6,31,0.67
2013-9-18,86.5,79.1,74.4,75.8,73.7,70.1,95,84,65,29.99,29.88,22,3,22,0.86
2013-9-19,87.6,79.3,73.3,77.4,73.4,70.4,96,83,64,29.97,29.89,34,6,34,0.02
2013-9-20,85.7,79.2,72.5,74.0,70.1,65.5,92,75,51,29.96,29.86,28,7,28,0.02
2013-9-21,88.6,79.7,72.1,73.7,71.8,70.0,94,78,58,29.88,29.75,21,2,21,0.01
2013-9-22,91.6,82.6,75.1,75.6,73.3,68.6,94,75,48,29.83,29.73,29,5,29,0.00
2013-9-23,88.0,79.5,75.1,77.2,75.3,71.0,95,88,67,29.94,29.82,40,1,40,0.59
2013-9-24,91.2,81.0,74.4,79.7,73.9,69.5,97,80,56,29.93,29.84,36,4,36,0.11
2013-9-25,87.2,79.3,73.9,77.1,73.3,69.7,91,82,62,29.88,29.78,26,2,26,0.16
2013-9-26,88.2,79.6,75.4,79.7,75.6,72.4,95,88,68,29.84,29.77,43,4,35,0.25
2013-9-27,88.0,80.0,74.4,76.3,72.4,67.3,96,79,53,29.89,29.79,23,2,21,0.00
2013-9-28,87.0,78.6,73.3,74.1,71.7,68.6,95,80,59,29.93,29.84,36,4,36,0.09
2013-9-29,87.4,79.0,72.3,74.6,70.3,65.7,96,77,52,29.93,29.84,14,0,14,0.03
2013-9-30,88.2,79.6,70.8,72.5,69.8,68.0,94,73,53,29.97,29.87,15,0,15,0.00
2013-10-1,87.0,81.4,74.2,73.4,70.7,68.4,88,70,57,29.99,29.92,34,8,34,0.00
2013-10-2,85.3,81.1,78.8,72.8,71.6,70.1,78,73,63,30.01,29.93,35,10,35,0.00
2013-10-3,86.7,80.9,76.0,74.3,72.3,69.3,89,76,64,30.02,29.91,24,3,24,0.00
2013-10-4,88.0,79.4,73.0,74.1,70.5,68.1,94,76,56,30.02,29.95,25,2,25,0.00
2013-10-5,83.0,75.5,71.1,72.3,70.0,68.3,94,84,62,30.00,29.91,20,0,20,0.00
2013-10-6,90.3,80.6,73.0,75.0,70.1,63.7,94,73,42,29.93,29.84,0,0,0,0.00
2013-10-7,90.7,78.5,73.0,73.5,71.3,68.3,94,80,51,29.87,29.78,62,4,62,0.10
2013-10-8,90.3,81.0,74.9,77.6,72.9,69.6,96,78,56,29.90,29.82,21,2,21,0.01
2013-10-9,85.9,77.5,70.6,74.6,71.4,68.0,93,82,68,29.96,29.87,33,5,33,0.00
2013-10-10,86.1,78.3,70.9,72.6,70.0,67.4,95,77,59,29.98,29.91,37,6,37,0.00
2013-10-11,85.7,76.6,68.3,70.2,66.9,64.7,95,74,51,29.98,29.91,31,4,31,0.00
2013-10-12,86.3,75.9,66.9,70.5,66.6,64.0,96,75,49,29.99,29.92,21,2,21,0.00
2013-10-13,84.1,76.4,70.4,70.9,66.1,60.1,95,73,49,30.02,29.93,28,4,28,0.00
2013-10-14,84.7,76.4,69.4,69.8,67.3,64.3,94,75,53,29.98,29.87,26,2,26,0.00
2013-10-15,85.3,76.7,70.1,72.1,68.7,65.7,96,78,53,29.92,29.84,24,3,24,0.00
2013-10-16,86.5,76.3,69.8,71.3,68.2,64.9,92,77,53,29.92,29.85,25,3,25,0.00
2013-10-17,87.2,77.3,69.4,72.8,69.3,67.3,96,78,55,29.93,29.86,20,1,20,0.00
2013-10-18,88.4,78.6,69.9,73.6,70.2,67.6,96,77,55,29.96,29.87,23,1,23,0.00
2013-10-19,89.0,80.6,71.5,73.3,71.0,68.4,94,74,55,29.93,29.84,23,3,23,0.00
2013-10-20,90.1,80.8,75.6,75.8,73.4,68.7,93,79,51,29.93,29.84,24,2,24,0.00
2013-10-21,89.5,81.5,74.7,75.7,73.3,71.0,92,77,58,29.97,29.87,23,2,23,0.00
2013-10-22,89.7,81.4,74.0,78.3,73.6,71.2,94,79,57,29.93,29.81,24,2,24,0.19
2013-10-23,87.8,80.0,74.9,75.4,71.8,66.5,92,77,59,29.92,29.79,30,4,30,0.00
2013-10-24,79.0,75.5,71.3,68.1,64.1,60.4,79,68,59,30.06,29.90,31,10,31,0.00
2013-10-25,81.2,74.8,68.4,65.5,63.0,59.9,82,68,49,30.12,30.03,45,13,45,0.00
2013-10-26,82.8,73.1,65.6,64.8,62.9,60.9,90,72,51,30.12,30.02,28,3,28,0.00
2013-10-27,82.6,72.5,64.3,64.2,61.5,58.7,87,70,49,30.06,29.99,26,5,26,0.00
2013-10-28,83.4,73.5,64.3,66.9,63.2,55.1,95,73,41,30.10,30.01,29,4,29,0.00
2013-10-29,83.6,75.1,65.5,68.2,65.3,63.1,95,73,53,30.13,30.05,40,12,40,0.00
2013-10-30,82.8,77.8,70.6,67.1,65.0,61.1,81,65,50,30.15,30.06,41,15,41,0.00
2013-10-31,84.7,79.0,73.2,71.4,68.5,64.3,81,71,56,30.08,29.96,27,4,27,0.00
2013-11-1,87.4,80.2,74.4,72.8,70.9,68.1,86,74,56,29.98,29.85,30,5,30,0.00
2013-11-2,89.0,78.0,70.1,73.1,68.6,61.7,96,75,44,29.90,29.78,34,4,34,0.00
2013-11-3,80.1,72.8,67.6,64.5,61.3,58.1,83,68,54,30.00,29.86,41,17,41,0.01
2013-11-4,79.9,75.8,72.0,67.7,62.4,54.1,86,64,44,30.04,29.96,52,24,52,0.11
2013-11-5,81.1,78.3,73.7,70.2,66.9,63.2,87,68,57,30.06,29.98,54,26,54,0.02
2013-11-6,83.2,77.7,70.4,69.3,67.4,65.9,87,71,59,30.03,29.96,43,14,43,0.00
2013-11-7,86.7,76.0,68.6,70.6,67.9,63.8,95,77,49,29.99,29.89,18,3,18,0.00
2013-11-8,83.0,75.7,70.3,71.7,68.8,65.0,93,80,57,30.00,29.90,46,14,46,0.23
2013-11-9,79.2,75.3,72.5,72.6,70.7,68.7,95,86,76,30.08,29.97,47,20,47,0.77
2013-11-10,81.6,77.8,73.5,70.6,68.9,66.9,83,74,65,30.08,30.01,33,12,33,0.00
2013-11-11,82.4,75.6,69.3,69.9,67.0,64.5,92,76,62,30.08,30.01,33,8,33,0.00
2013-11-12,81.2,72.6,68.1,69.8,66.7,65.2,94,82,63,30.04,29.95,25,2,25,0.00
2013-11-13,75.3,71.2,67.8,66.2,62.3,54.4,90,74,59,30.17,29.96,50,22,50,0.08
2013-11-14,75.3,71.9,68.9,60.8,56.4,52.2,66,58,52,30.20,30.09,46,22,46,0.00
2013-11-15,81.2,76.5,73.0,69.2,64.6,57.6,86,67,59,30.10,30.00,36,12,36,0.02
2013-11-16,79.9,77.2,72.3,71.1,67.8,63.0,90,73,64,30.06,29.98,31,6,29,0.13
2013-11-17,84.1,78.0,71.6,71.6,69.0,66.6,89,74,60,30.04,29.97,28,5,28,0.00
2013-11-18,84.7,76.0,69.6,72.7,69.3,67.0,95,81,62,30.00,29.89,18,1,18,0.00
2013-11-19,84.0,75.6,70.9,71.8,69.8,67.7,93,83,61,29.91,29.82,30,3,30,0.00
2013-11-20,84.0,75.9,69.1,72.8,70.4,67.6,96,84,66,30.02,29.89,21,0,21,0.01
2013-11-21,81.2,75.6,71.6,73.9,71.0,69.2,96,86,70,30.10,30.01,34,6,34,0.39
2013-11-22,80.1,76.9,72.5,71.6,68.9,66.4,93,77,67,30.12,30.03,41,18,41,0.34
2013-11-23,81.8,76.5,71.6,70.3,69.0,67.5,87,78,64,30.04,29.94,29,7,29,0.27
2013-11-24,80.7,72.9,67.3,69.2,66.0,61.8,95,80,58,30.10,29.95,46,12,46,0.02
2013-11-25,75.1,72.7,70.6,68.9,63.4,58.3,91,73,63,30.16,30.01,50,27,50,0.10
2013-11-26,82.6,77.2,71.8,73.5,71.3,67.7,92,82,70,30.01,29.80,51,14,51,0.07
2013-11-27,78.5,71.1,58.4,74.3,63.8,51.3,96,79,47,30.08,29.76,47,10,44,0.81
2013-11-28,72.3,61.0,46.7,57.9,51.6,43.6,89,72,53,30.21,30.08,40,13,40,0.00
2013-11-29,76.1,68.2,58.6,61.0,58.0,54.7,92,72,54,30.23,30.15,43,13,43,0.00
2013-11-30,75.6,67.7,60.4,69.0,62.1,58.5,95,83,68,30.17,30.07,48,8,48,0.60
2013-12-1,74.2,67.2,61.5,70.7,65.3,59.5,97,94,84,30.07,29.92,18,2,18,1.45
2013-12-2,74.2,67.0,60.7,66.9,63.4,58.6,97,89,60,29.91,29.79,18,2,18,0.02
2013-12-3,79.0,69.4,59.3,65.9,62.2,57.9,97,80,52,29.97,29.87,12,0,12,0.01
2013-12-4,80.7,71.9,64.3,68.0,64.5,62.1,95,79,54,30.06,29.95,18,1,18,0.00
2013-12-5,82.0,73.2,64.2,71.1,66.8,62.6,96,81,63,30.13,30.04,27,2,27,0.00
2013-12-6,82.4,76.0,67.9,69.5,67.4,64.5,90,75,58,30.15,30.05,38,7,38,0.00
2013-12-7,83.6,73.3,65.3,72.2,66.9,63.7,96,82,54,30.18,30.10,21,0,21,0.02
2013-12-8,82.4,75.8,69.6,70.1,68.0,64.7,92,78,58,30.17,30.09,29,3,29,0.03
2013-12-9,83.0,76.7,69.9,69.5,66.4,59.4,89,71,49,30.16,30.08,36,5,36,0.00
2013-12-10,84.0,76.2,69.6,71.2,69.3,66.8,92,80,61,30.13,30.04,23,1,23,0.00
2013-12-11,83.2,74.6,68.6,74.0,69.2,66.8,96,84,64,30.16,30.08,20,0,20,0.00
2013-12-12,78.5,70.1,63.1,71.1,64.6,57.4,96,83,66,30.19,30.10,40,9,40,0.00
2013-12-13,77.0,72.2,62.6,67.9,61.9,55.8,88,70,60,30.16,30.07,43,15,43,0.00
2013-12-14,81.6,76.6,72.7,70.2,68.8,66.6,89,77,66,30.07,29.96,41,8,41,0.00
2013-12-15,84.0,76.2,70.3,73.6,70.5,66.9,94,83,67,30.02,29.91,35,4,35,0.00
2013-12-16,73.9,67.3,61.3,66.6,59.8,56.9,88,77,63,30.13,30.00,23,10,23,0.00
2013-12-17,77.4,66.0,57.8,63.0,58.0,55.4,94,77,54,30.15,30.06,30,8,30,0.00
2013-12-18,75.4,65.0,58.9,58.3,56.3,53.7,95,75,50,30.20,30.10,29,9,29,0.00
2013-12-19,77.0,67.5,55.6,61.7,57.7,53.6,95,73,52,30.20,30.12,33,5,33,0.00
2013-12-20,80.7,74.9,65.8,68.1,65.5,60.8,85,73,60,30.15,30.07,26,3,26,0.00
2013-12-21,81.8,77.5,74.7,71.6,69.6,67.7,84,77,64,30.11,30.03,44,8,44,0.00
2013-12-22,83.2,78.2,76.0,71.8,70.2,68.0,84,77,64,30.13,30.04,46,13,46,0.00
2013-12-23,82.8,77.0,69.9,71.8,70.2,67.4,92,80,65,30.15,30.08,40,9,40,0.05
2013-12-24,82.6,70.6,65.8,72.7,65.3,58.7,96,84,61,30.14,30.05,40,7,40,0.00
2013-12-25,76.0,72.2,69.4,67.1,64.2,61.4,91,76,67,30.14,30.06,50,18,50,0.03
2013-12-26,77.6,74.5,70.8,69.2,67.6,65.6,88,79,72,30.13,30.03,30,7,30,0.07
2013-12-27,79.9,73.8,67.8,71.2,68.1,66.2,96,83,68,30.16,30.05,32,8,32,0.12
2013-12-28,79.8,76.3,73.9,71.3,69.1,65.8,86,78,71,30.14,29.98,33,8,33,0.01
2013-12-29,80.7,77.2,74.6,72.5,71.5,70.4,93,83,74,30.00,29.90,38,10,38,0.00
2013-12-30,79.8,72.8,67.4,72.6,68.3,63.3,96,86,68,30.11,29.95,20,2,20,0.00
2013-12-31,78.1,72.0,66.4,66.5,62.6,59.2,87,73,58,30.19,30.07,44,16,44,0.00
2014-1-1,80.3,74.4,71.6,72.3,69.2,63.3,93,84,70,30.15,30.01,34,7,34,0.35
2014-1-2,84.5,76.0,69.4,71.1,67.7,63.6,94,77,52,30.01,29.84,43,7,43,0.00